Location: Arlington
(40.6323°N, 74.1651°W)
Time: 16:04:07
(UTC+00:00)

Tsikada Rocket - Pass Details

Date: 22 November 2019
Orbit: 958 x 1009 km, 82.9° (Epoch: 09 December)

Event Time Altitude Azimuth Distance (km) Brightness Sun altitude
Rises 22:11:27 0° 165° (SSE) 3,706 7.1 -7.3°
Reaches altitude 10° 22:14:04 10° 159° (SSE) 2,766 6.4 -7.8°
Maximum altitude 22:20:03 44° 90° (E) 1,356 4.4 -8.9°
Drops below altitude 10° 22:26:04 10° 20° (NNE) 2,795 6.0 -10.0°
Sets 22:28:43 0° 14° (NNE) 3,749 6.7 -10.4°
